Flag for Isle of Man Weather past 2 weeks in Douglas, Isle of Man

Now
55 °F

Passing clouds.


Feels Like: 52 °F
Forecast: 52 / 61 °F
Wind: 12 mph from Northwest

Location: Isle Of Man / Ronaldsway Airport

Current Time: Sep 2, 2015 at 3:35:39 AM

Latest Report: Sep 2, 2015 at 2:50 AM


Visibility: N/A

Pressure: 30.09 "Hg

Humidity: 82%

Dew point: 50 °F

Location of DouglasLocation

Historic Weather in Douglas — Graph

°F

Douglas temperature yesterday

Maximum temperature yesterday: 61 °F (at 12:50 PM)
Minimum temperature yesterday: 55 °F (at 1:50 AM)
Average temperature yesterday: 57 °F

Past Weeks' High & Low Weather Summary

 TemperatureHumidityPressure
High68 °F (Aug 18, 4:20 PM)100% (Aug 19, 3:50 AM)30.12 "Hg (Aug 19, 3:50 AM)
Low50 °F (Aug 25, 4:50 AM)52% (Aug 30, 11:20 AM)29.30 "Hg (Aug 26, 7:50 AM)
Average59 °F84%29.81 "Hg
* Reported Aug 17 11:50 PM — Sep 1 11:50 PM, Douglas, Weather by CustomWeather, © 2015

Note: Actual official high and low records may vary slightly from our data, if they occured in-between our weather recording intervals... More about our weather records

Advertising

Douglas weather history for previous 24 hours

 ConditionsComfort  
Time TempWeatherWind HumidityBarometerVisibility
11:50 PM
Tue, Sep 1
55 °FPassing clouds.14 mph82%30.12 "HgN/A
9:50 PM55 °FPassing clouds.13 mph82%30.12 "HgN/A
9:20 PM55 °FPassing clouds.16 mph82%30.12 "HgN/A
8:50 PM55 °FScattered clouds.17 mph77%30.12 "HgN/A
8:20 PM55 °FPassing clouds.17 mph77%30.09 "HgN/A
7:50 PM55 °FPassing clouds.21 mph77%30.09 "HgN/A
7:20 PM55 °FPassing clouds.18 mph77%30.09 "HgN/A
6:50 PM57 °FPassing clouds.14 mph72%30.09 "HgN/A
6:20 PM59 °FPassing clouds.17 mph68%30.09 "HgN/A
5:50 PM59 °FPassing clouds.16 mph68%30.09 "HgN/A
5:20 PM59 °FPassing clouds.16 mph68%30.09 "HgN/A
4:20 PM59 °FScattered clouds.15 mph72%30.09 "HgN/A
3:50 PM59 °FScattered clouds.14 mph72%30.09 "HgN/A
3:20 PM59 °FScattered clouds.14 mph72%30.09 "HgN/A
2:50 PM59 °FPassing clouds.14 mph72%30.12 "HgN/A
2:20 PM57 °FPassing clouds.14 mph77%30.12 "HgN/A
1:50 PM59 °FPassing clouds.15 mph68%30.12 "HgN/A
1:20 PM59 °FPassing clouds.15 mph68%30.12 "HgN/A
12:50 PM61 °FPassing clouds.16 mph63%30.12 "HgN/A
12:20 PM59 °FPassing clouds.14 mph68%30.12 "HgN/A
11:50 AM59 °FPassing clouds.15 mph72%30.12 "HgN/A
11:20 AM59 °FPassing clouds.16 mph72%30.09 "HgN/A
10:50 AM57 °FPassing clouds.16 mph77%30.09 "HgN/A
10:20 AM57 °FPassing clouds.17 mph77%30.09 "HgN/A
9:50 AM57 °FPassing clouds.17 mph77%30.09 "HgN/A
9:20 AM57 °FPassing clouds.13 mph77%30.09 "HgN/A
8:50 AM57 °FPassing clouds.13 mph77%30.09 "HgN/A
8:20 AM55 °FPassing clouds.12 mph82%30.09 "HgN/A
7:50 AM55 °FPassing clouds.9 mph82%30.09 "HgN/A
7:20 AM55 °FPassing clouds.9 mph88%30.09 "HgN/A
6:50 AM55 °FPassing clouds.10 mph82%30.07 "HgN/A
6:20 AM55 °FPassing clouds.7 mph82%30.07 "HgN/A
5:50 AM55 °FPassing clouds.8 mph82%30.07 "HgN/A
3:50 AM55 °FPassing clouds.6 mph88%30.07 "HgN/A
Weather by CustomWeather, © 2015

See weather overviewHow to use our weather pages